This is the latest recevied weather packets stored in our database for station/object N5SRF. If no packets are shown the sender has not sent any weather packets the latest 10 day(s).
| Time | Temp. | Humidity | Pressure | Rain* | Wind** | Luminosity | Snow |
|---|---|---|---|---|---|---|---|
| 1778107059 | 28.33° C | 89% | 1012.5 hPa | 0 mm | - | 126 W/m² | - |
| 1778106754 | 28.33° C | 88% | 1012.6 hPa | 0 mm | - | 134 W/m² | - |
| 1778106451 | 28.89° C | 88% | 1012.6 hPa | 0 mm | - | 125 W/m² | - |
| 1778106146 | 28.89° C | 88% | 1012.6 hPa | 0 mm | - | 117 W/m² | - |
| 1778105845 | 28.89° C | 88% | 1012.6 hPa | 0 mm | - | 168 W/m² | - |
| 1778105543 | 28.89° C | 88% | 1012.4 hPa | 0 mm | - | 164 W/m² | - |
| 1778105239 | 28.89° C | 87% | 1012.3 hPa | 0 mm | - | 178 W/m² | - |
| 1778104934 | 28.89° C | 87% | 1012.4 hPa | 0 mm | - | 164 W/m² | - |
| 1778104631 | 28.89° C | 87% | 1012.4 hPa | 0 mm | - | 175 W/m² | - |
| 1778104327 | 28.33° C | 86% | 1012.6 hPa | 0 mm | - | 157 W/m² | - |
| 1778104023 | 28.33° C | 87% | 1012.5 hPa | 0 mm | - | 206 W/m² | - |
| 1778103721 | 28.33° C | 87% | 1012.5 hPa | 0 mm | - | 192 W/m² | - |
| 1778103419 | 29.44° C | 86% | 1012.5 hPa | 0 mm | - | 175 W/m² | - |
| 1778103116 | 29.44° C | 84% | 1012.7 hPa | 0 mm | - | 198 W/m² | - |
| 1778102813 | 30° C | 83% | 1012.5 hPa | 0 mm | - | 247 W/m² | - |
| 1778102508 | 29.44° C | 84% | 1012.4 hPa | 0 mm | - | 225 W/m² | - |
| 1778102205 | 29.44° C | 84% | 1012.8 hPa | 0 mm | - | 275 W/m² | - |
| 1778101901 | 28.89° C | 85% | 1012.7 hPa | 0 mm | - | 348 W/m² | - |
| 1778101598 | 28.89° C | 85% | 1012.8 hPa | 0 mm | - | 236 W/m² | - |
| 1778101294 | 29.44° C | 83% | 1012.7 hPa | 0 mm | - | 317 W/m² | - |
| 1778100991 | 28.89° C | 85% | 1012.7 hPa | 0 mm | - | 285 W/m² | - |
| 1778100687 | 28.89° C | 86% | 1012.7 hPa | 0 mm | - | 328 W/m² | - |
| 1778100385 | 28.89° C | 85% | 1013 hPa | 0 mm | - | 250 W/m² | - |
| 1778100082 | 28.89° C | 86% | 1012.9 hPa | 0 mm | - | 347 W/m² | - |
| 1778099780 | 28.33° C | 87% | 1013 hPa | 0 mm | - | 347 W/m² | - |
* Rain latest hour (hover to see other rain measurements)
** Current wind speed in m/s (hover to see current wind gust speed)